TimeCDT,TemperatureF,Dew PointF,Humidity,Sea Level PressureIn,VisibilityMPH,Wind Direction,Wind SpeedMPH,Gust SpeedMPH,PrecipitationIn,Events,Conditions,WindDirDegrees,DateUTC
12:53 AM,81.0,72.0,74,29.91,10.0,SE,6.9,-,N/A,,Clear,140,2013-07-06 05:53:00
1:53 AM,80.1,72.0,76,29.90,10.0,SE,3.5,-,N/A,,Clear,130,2013-07-06 06:53:00
2:53 AM,75.0,71.1,87,29.91,10.0,NE,3.5,-,N/A,,Clear,40,2013-07-06 07:53:00
3:53 AM,73.9,70.0,87,29.90,10.0,North,4.6,-,N/A,,Clear,10,2013-07-06 08:53:00
4:53 AM,73.0,70.0,90,29.90,10.0,North,3.5,-,N/A,,Clear,10,2013-07-06 09:53:00
5:53 AM,73.0,70.0,90,29.89,10.0,NE,3.5,-,N/A,,Clear,50,2013-07-06 10:53:00
6:53 AM,73.0,71.1,93,29.91,6.0,NNE,5.8,-,N/A,,Clear,30,2013-07-06 11:53:00
7:53 AM,78.1,73.0,84,29.91,10.0,ENE,5.8,-,N/A,,Clear,60,2013-07-06 12:53:00
8:53 AM,84.0,73.0,69,29.91,10.0,NNE,6.9,-,N/A,,Clear,30,2013-07-06 13:53:00
9:53 AM,86.0,72.0,63,29.91,10.0,NE,5.8,-,N/A,,Partly Cloudy,50,2013-07-06 14:53:00
10:53 AM,87.1,70.0,57,29.91,10.0,ESE,4.6,-,N/A,,Partly Cloudy,110,2013-07-06 15:53:00
11:53 AM,93.0,70.0,47,29.91,10.0,East,9.2,16.1,N/A,,Scattered Clouds,80,2013-07-06 16:53:00
12:53 PM,91.0,71.1,52,29.91,10.0,SE,15.0,25.3,N/A,,Scattered Clouds,140,2013-07-06 17:53:00
1:53 PM,93.0,69.1,45,29.88,10.0,ESE,13.8,21.9,N/A,,Partly Cloudy,110,2013-07-06 18:53:00
2:53 PM,93.9,72.0,49,29.87,10.0,SE,17.3,-,N/A,,Clear,140,2013-07-06 19:53:00
3:53 PM,91.9,72.0,52,29.86,10.0,SE,18.4,25.3,N/A,,Clear,130,2013-07-06 20:53:00
4:53 PM,91.0,72.0,53,29.85,10.0,SE,18.4,24.2,N/A,,Clear,140,2013-07-06 21:53:00
5:53 PM,90.0,72.0,55,29.84,10.0,ESE,18.4,24.2,N/A,,Clear,110,2013-07-06 22:53:00
6:53 PM,88.0,73.9,63,29.85,10.0,ESE,17.3,25.3,N/A,,Clear,120,2013-07-06 23:53:00
7:53 PM,84.9,73.9,69,29.87,10.0,ESE,18.4,24.2,N/A,,Partly Cloudy,120,2013-07-07 00:53:00
8:53 PM,84.0,75.9,76,29.87,10.0,ESE,13.8,-,N/A,,Scattered Clouds,120,2013-07-07 01:53:00
9:53 PM,82.9,75.0,77,29.88,10.0,SE,11.5,-,N/A,,Clear,130,2013-07-07 02:53:00
10:53 PM,82.0,75.9,82,29.88,10.0,South,3.5,-,N/A,,Partly Cloudy,170,2013-07-07 03:53:00
11:53 PM,81.0,75.0,82,29.89,10.0,East,4.6,-,N/A,,Clear,100,2013-07-07 04:53:00